Location: Newark
(21.1200°N, 73.4000°E)
Time: 00:55:11
(UTC+00:00)

Vanguard 1 Rocket - Pass Details

Date: 20 January 2021
Orbit: 654 x 4223 km, 34.3° (Epoch: 06 March)

Event Time Altitude Azimuth Distance (km) Brightness Sun altitude
Rises 14:58:42 0° 285° (WNW) 4,128 11.7 -29.8°
Reaches altitude 10° 15:01:08 10° 278° (W) 3,468 11.2 -30.4°
Maximum altitude 15:09:42 43° 210° (SSW) 2,727 9.9 -32.4°
Drops below altitude 10° 15:25:36 10° 146° (SE) 6,254 11.4 -36.0°
Sets 15:32:01 0° 140° (SE) 7,772 11.9 -37.5°
